Форум фильмов, сериалов и мультфильмов

Объявление

Информация о пользователе

Привет, Гость! Войдите или зарегистрируйтесь.



Софт

Тем 9181 страница 9210 из 18879

Тема Ответов Просмотров Последнее сообщение
0 1 12.10.2017 16:08:39  Trust_Uploader
0 0 12.10.2017 16:06:33  Trust_Uploader
0 0 12.10.2017 16:06:31  mitsumi
0 3 12.10.2017 16:04:26  Trust_Uploader
0 0 12.10.2017 16:02:20  Trust_Uploader
0 1 12.10.2017 16:01:24  mitsumi
0 0 12.10.2017 16:00:10  Trust_Uploader
0 0 12.10.2017 15:58:02  Trust_Uploader
0 0 12.10.2017 15:56:21  mitsumi
0 0 12.10.2017 15:55:56  Trust_Uploader
9191 Sonokinetic Accordion KONTAKT  Trust_Uploader
0 2 12.10.2017 15:53:50  Trust_Uploader
0 0 12.10.2017 15:51:43  Trust_Uploader
0 11 12.10.2017 15:51:26  mitsumi
0 0 12.10.2017 15:49:37  Trust_Uploader
9195 System Monitor 2.1 (Mac OSX)  Trust_Uploader
0 1 12.10.2017 15:47:30  Trust_Uploader
0 0 12.10.2017 15:46:33  mitsumi
9197 Soulver 2.6.5 (Mac OSX)  Trust_Uploader
0 0 12.10.2017 15:45:23  Trust_Uploader
0 0 12.10.2017 15:43:17  Trust_Uploader
0 0 12.10.2017 15:41:41  mitsumi
0 0 12.10.2017 15:41:10  Trust_Uploader
9201 Principle 3.3 (Mac OSX)  Trust_Uploader
0 0 12.10.2017 15:39:03  Trust_Uploader
9202 Pixologic ZBrush 4R8 P2 (Mac OSX)  Trust_Uploader
0 5 12.10.2017 15:36:54  Trust_Uploader
0 4 12.10.2017 15:36:05  mitsumi
0 0 12.10.2017 15:34:39  Trust_Uploader
9205 Mitch for Twitch 1.6.1 (Mac OSX)  Trust_Uploader
0 0 12.10.2017 15:32:32  Trust_Uploader
0 0 12.10.2017 15:31:03  mitsumi
9207 iBoostUp Premium v5.95 (Mac OSX)  Trust_Uploader
0 0 12.10.2017 15:30:27  Trust_Uploader
9208 Bookends 12.8.4 (Mac OSX)  Trust_Uploader
0 0 12.10.2017 15:28:19  Trust_Uploader
9209 ApolloOne 2.0.0 (Mac OSX)  Trust_Uploader
0 0 12.10.2017 15:26:11  Trust_Uploader
0 6 12.10.2017 15:25:08  mitsumi